Regional Weather Roundup
Issued by NWS

Home | Current Version | Previous Version | Graphics & Text | Print | Product List | Glossary On
Versions: 1 2 3 4 5 6 7 8 9 10 11 12 13 14 15 16 17 18 19 20 21 22 23 24 25 26 27 28 29 30 31 32 33 34 35 36 37 38 39 40 41 42 43 44 45 46 47 48 49 50
000
ASUS43 KLSX 290507
RWRMO

WEATHER SUMMARY FOR MISSOURI
NATIONAL WEATHER SERVICE SPRINGFIELD MO
1200 AM CDT FRI AUG 29 2014

NOTE: "FAIR" INDICATES FEW OR NO CLOUDS BELOW 12,000 FEET WITH NO
       SIGNIFICANT WEATHER AND/OR OBSTRUCTIONS TO VISIBILITY.
       CURRENT SKY AND/OR WEATHER CONDITIONS ARE NOT AVAILABLE FOR
       CHILLICOTHE AND FARMINGTON.

MOZ001>031-035>038-043-044-053-054-290600-
...NORTHERN AND WESTERN MISSOURI...

CITY           SKY/WX    TMP DP  RH WIND       PRES   REMARKS
KANSAS CTY INT PTCLDY    72  64  76 S8        29.89S
KANSAS C DTWN  CLEAR     80  64  58 S7        29.88S
LEE`S SUMMIT   CLEAR     77  65  66 SW3       29.91R
ST JOSEPH      MOCLDY    75  70  84 SE6       29.87S
CHILLICOTHE      N/A     77  73  87 CALM      29.91S
KIRKSVILLE     CLEAR     73  70  90 E9        29.95S

$$
MOZ066>068-077>081-088>096-101>105-290600-
...SOUTHWEST MISSOURI...

CITY           SKY/WX    TMP DP  RH WIND       PRES   REMARKS
SPRINGFIELD    CLEAR     75  60  59 S8        29.95S
JOPLIN         CLEAR     78  63  59 S12       29.92S

$$
MOZ032>034-039>042-045>050-055>058-069>072-290600-
...CENTRAL MISSOURI...

CITY           SKY/WX    TMP DP  RH WIND       PRES   REMARKS
COLUMBIA       CLEAR     76  71  85 SE8       29.94S
JEFFERSON CITY CLEAR     77  70  79 E6        29.92F
ROLLA          CLEAR     75  67  76 SE10      29.96S
SEDALIA        CLEAR     75  64  68 S9        29.91S
WHITEMAN AFB   CLEAR     74  65  72 S7        29.90R
OSAGE BEACH    CLEAR     75  63  64 SE5       29.94S

$$
MOZ051-052-059>065-290600-
...EAST CENTRAL MISSOURI...

CITY           SKY/WX    TMP DP  RH WIND       PRES   REMARKS
ST LOUIS INTL  MOCLDY    78  71  79 E7        29.99S
SPIRIT OF STL  MOCLDY    76  70  82 VRB3      29.96S
ST CHARLES     MOCLDY    74  72  93 CALM      29.97S

$$
MOZ072>076-082>087-097>100-106>115-290600-
...SOUTH CENTRAL AND SOUTHEAST MISSOURI...

CITY           SKY/WX    TMP DP  RH WIND       PRES   REMARKS
CAPE GIRARDEAU PTCLDY    72  70  93 CALM      29.98F
FARMINGTON     CLEAR     72  68  88 S3        30.03S
POPLAR BLUFF   CLEAR     74  68  81 CALM      29.97S
WEST PLAINS    CLEAR     76  63  64 S5        30.01R

$$


USA.gov is the U.S. government's official web portal to all federal, state and local government web resources and services.